This demonstration page uses our WeatherBlox Daily Observations layout. Learn more.

Left ArrowRight Arrow

39.01783, -85.05884

Hourly Observations for February 11, 2019

Temp ( °F °C ) Dew Point ( °F °C ) Humidity (%) Winds ( mph kmh ) Pressure ( in mb ) Visibility ( mi km ) Precip ( " mm )
12:52 am 00:52 Cloudy with Mist and Fog 35 1.7 34 1.1 96 96 SSE 5 7 30.17 1022 1 1 0.00 0.03
1:52 am 01:52 Cloudy with Drizzle 35 1.7 34 1.1 96 96 S 5 7 30.16 1021 1 1 0.01 0.25
2:52 am 02:52 Mostly Cloudy with Patchy Fog 36 2.2 35 1.7 97 97 S 5 7 30.17 1022 1 1 0.00 0.03
3:27 am 03:27 Mostly Cloudy with Light Rain 36 2.2 35 1.7 97 97 SSE 3 6 30.18 1022 1 1 0.02 0.51
3:52 am 03:52 Cloudy with Light Rain 37 2.8 35 1.7 93 93 Calm 30.15 1021 1 1 0.02 0.51
4:52 am 04:52 Cloudy with Light Rain 36 2.2 35 1.7 97 97 S 3 6 30.12 1020 1 1 0.02 0.51
5:52 am 05:52 Cloudy with Light Rain 38 3.3 36 2.2 93 93 Calm 30.14 1021 2 2 0.02 0.51
6:17 am 06:17 Cloudy with Light Rain 37 2.8 36 2.2 96 96 ESE 5 7 30.16 1021 2 2 0.03 0.76
6:52 am 06:52 Cloudy with Light Rain 37 2.8 36 2.2 96 96 Calm 30.14 1021 2 2 0.05 1.27
7:07 am 07:07 Cloudy with Light Rain 37 2.8 36 2.2 96 96 Calm 30.16 1021 2 2 0.01 0.25
7:52 am 07:52 Cloudy with Light Rain 38 3.3 36 2.2 93 93 NE 3 6 30.14 1021 2 2 0.04 1.02
8:41 am 08:41 Cloudy with Light Rain 38 3.3 36 2.2 93 93 E 6 9 30.16 1021 1 2 0.02 0.51
8:52 am 08:52 Cloudy with Light Rain 38 3.3 36 2.2 93 93 NE 7 11 30.14 1021 1 1 0.02 0.51
8:53 am 08:53 Cloudy with Light Rain 38 3.3 36 2.2 93 93 NE 8 13 30.16 1021 0 0 0.00 0.03
9:16 am 09:16 Cloudy with Light Rain 38 3.3 36 2.2 93 93 E 7 11 30.16 1021 5 8 0.01 0.25
9:30 am 09:30 Cloudy with Light Rain 38 3.3 37 2.8 97 97 SSE 10 17 30.15 1021 2 2 0.01 0.25
9:52 am 09:52 Cloudy with Light Rain 39 3.9 37 2.8 93 93 SE 7 11 30.12 1020 2 2 0.02 0.51
10:52 am 10:52 Cloudy with Light Rain 41 5 39 3.9 93 93 E 6 9 30.12 1020 2 2 0.01 0.25
11:52 am 11:52 Cloudy with Light Rain 42 5.6 40 4.4 92 92 E 7 11 30.10 1019 2 2 0.01 0.25
12:31 pm 12:31 Cloudy with Light Rain 41 5 40 4.4 96 96 ENE 7 11 30.11 1020 2 2 0.02 0.51
12:52 pm 12:52 Cloudy with Light Rain 42 5.6 40 4.4 92 92 ENE 6 9 30.07 1018 2 2 0.04 1.02
1:52 pm 13:52 Cloudy with Light Rain 42 5.6 40 4.4 92 92 ESE 7 11 30.05 1018 2 2 0.04 1.02
2:06 pm 14:06 Cloudy with Light Rain 43 6.1 41 5 93 93 ESE 8 13 30.05 1018 4 6 0.02 0.51
2:52 pm 14:52 Cloudy with Light Rain 43 6.1 41 5 93 93 E 7 11 30.03 1017 4 6 0.07 1.78
3:52 pm 15:52 Cloudy with Light Rain 43 6.1 41 5 93 93 E 8 13 30.01 1016 3 4 0.09 2.29
4:52 pm 16:52 Cloudy with Light Rain 43 6.1 41 5 93 93 E 8 13 30.00 1016 3 4 0.07 1.78
5:13 pm 17:13 Cloudy with Light Rain 43 6.1 41 5 93 93 ESE 8 13 30.01 1016 3 4 0.01 0.25
5:52 pm 17:52 Cloudy with Light Rain 43 6.1 41 5 93 93 E 9 15 29.99 1016 3 4 0.04 1.02
6:07 pm 18:07 Cloudy with Light Rain 43 6.1 41 5 93 93 E 9 15 30.01 1016 2 2 0.02 0.51
6:52 pm 18:52 Cloudy with Light Rain 43 6.1 41 5 93 93 ENE 8 13 29.98 1015 2 2 0.06 1.52
7:52 pm 19:52 Cloudy with Light Rain 42 5.6 40 4.4 92 92 E 12 19 29.98 1015 2 2 0.07 1.78
8:52 pm 20:52 Cloudy with Light Rain 42 5.6 40 4.4 92 92 E 13 20 29.94 1014 2 2 0.06 1.52
9:52 pm 21:52 Cloudy with Rain 42 5.6 40 4.4 92 92 E 14 22 29.93 1014 2 2 0.08 2.03
10:16 pm 22:16 Cloudy with Light Rain 42 5.6 40 4.4 92 92 E 14 22 29.93 1013 2 2 0.05 1.27
10:52 pm 22:52 Cloudy with Light Rain 42 5.6 40 4.4 92 92 E 13 20 29.89 1012 2 2 0.08 2.03
10:56 pm 22:56 Cloudy with Light Rain 42 5.6 40 4.4 92 92 E 12 19 29.91 1013 4 6 0.00 0.03
11:52 pm 23:52 Cloudy with Light Rain 42 5.6 40 4.4 92 92 ESE 9 15 29.85 1011 4 6 0.04 1.02

Powered by AerisWeather